Regional Weather Roundup
Issued by NWS

Home | Current Version | Previous Version | Text Only | Print | Product List | Glossary Off
Versions: 1 2 3 4 5 6 7 8 9 10 11 12 13 14 15 16 17 18 19 20 21 22 23 24 25 26 27 28 29 30 31 32 33 34 35 36 37 38 39 40 41 42 43 44 45 46 47 48 49 50

396
ASUS43 KDMX 290201
RWRIA

WEATHER ROUNDUP FOR IOWA
NATIONAL WEATHER SERVICE DES MOINES IA
900 PM CDT TUE MAR 28 2017

NOTE: "FAIR" INDICATES FEW OR NO CLOUDS BELOW 12,000 FEET WITH NO
SIGNIFICANT WEATHER AND/OR OBSTRUCTIONS TO VISIBILITY.

* - THESE STATIONS ARE NOT NWS STATIONS...THUS NOT UNDER NWS
QUALITY CONTROL.  THEY ALSO DO NOT REPORT WEATHER SUCH
AS PRECIPITATION OR FOG.

IAZ001>003-012>014-020>022-031>034-043>046-290300-
   NORTHWEST IOWA

CITY           SKY/WX    TMP DP  RH WIND       PRES   REMARKS
CARROLL *      CLOUDY    45  45 100 E6        30.13R
CHEROKEE *     CLOUDY    47  43  84 S5        30.14R
DENISON *      CLOUDY    48  43  81 E7        30.13F
LE MARS *      CLOUDY    52  41  66 SE8       30.14R
ORANGE CITY *  CLOUDY    52  43  71 E5        30.13R
SHELDON *      CLOUDY    50  39  66 E7        30.13R
SIOUX CITY     CLOUDY    50  43  77 SE9       30.13R
SPENCER        MOCLDY    48  42  80 E6        30.14S
STORM LAKE *   CLOUDY    45  41  87 SE7       30.13S
$$

IAZ055>058-069>071-079>083-090>094-290300-
   SOUTHWEST IOWA

CITY           SKY/WX    TMP DP  RH WIND       PRES   REMARKS
ATLANTIC *     CLOUDY    48  43  81 NE6       30.10S
AUDUBON *      CLOUDY    46  43  87 E6        30.12S
CLARINDA *     CLOUDY    52  45  76 E13       30.09F
COUNCIL BLFS * CLOUDY    48  46  93 NE8       30.09S
CRESTON *      CLOUDY    48  45  87 NE10      30.12R
HARLAN  *      CLOUDY    48  45  87 E10       30.14R
LAMONI         CLOUDY    50  45  83 E8        30.10R
RED OAK *      CLOUDY    50  45  81 NE9       30.08S
SHENANDOAH *   CLOUDY    50  45  81 NE12      30.08S
$$

IAZ047>049-059>061-072>074-084-290300-
   CENTRAL IOWA

CITY           SKY/WX    TMP DP  RH WIND       PRES   REMARKS
AMES           PTCLDY    46  44  93 E3        30.14F
ANKENY *       CLOUDY    50  43  76 E3        30.14F
BOONE *        CLOUDY    45  45 100 E5        30.13F
CHARITON *     CLOUDY    50  45  81 E9        30.11F
DES MOINES     CLOUDY    51  43  74 E6        30.13F
GRINNELL*      CLOUDY    47  45  90 E3        30.17S
MARSHALLTOWN   CLOUDY    46  42  86 CALM      30.15R
NEWTON *       CLOUDY    48  45  87 E7        30.14F
PELLA *        RAIN      49  46  90 E5        30.16S
PERRY *        CLOUDY    48  43  82 E7        30.13F
$$

IAZ004>006-015-016-023>025-035-036-290300-
   NORTH CENTRAL IOWA

CITY           SKY/WX    TMP DP  RH WIND       PRES   REMARKS
ALGONA *       MOCLDY    52  41  66 E6        30.14F
CLARION *      MOCLDY    48  46  93 S6        30.15S
ESTHERVILLE    MOCLDY    47  42  83 E7        30.14S
FORT DODGE *   CLOUDY    48  39  71 S6        30.15R
MASON CITY     MOCLDY    48  38  68 E8        30.17R
FOREST CITY *    N/A     50  37  62 E5        30.16R
WEBSTER CITY * CLOUDY    46  43  87 S6        30.13S
IOWA FALLS *     N/A     47  43  86 S6        30.17R
$$

IAZ007>011-017>019-026>030-037>042-050>054-066-290300-
   NORTHEAST IOWA

CITY           SKY/WX    TMP DP  RH WIND       PRES   REMARKS
CEDAR RAPIDS   CLEAR     44  40  85 E7        30.17R
CHARLES CITY * PTCLDY    50  39  66 SE7       30.18R
CLINTON *      CLEAR     43  40  89 CALM      30.18R
DECORAH *      CLEAR     46  39  76 S5        30.17R
DUBUQUE        CLEAR     41  38  89 CALM      30.17R
MONTICELLO *   CLEAR     41  37  87 CALM      30.18R
OELWEIN *      CLOUDY    45  41  87 SE7       30.18R
WATERLOO       CLOUDY    46  39  76 E10       30.17R
$$

IAZ064-065-067-068-078-290300-
   EAST CENTRAL IOWA

CITY           SKY/WX    TMP DP  RH WIND       PRES   REMARKS
DAVENPORT      CLEAR     44  38  79 E5        30.18R
IOWA CITY      PTCLDY    49  40  71 E6        30.19R
MUSCATINE *    CLOUDY    46  41  81 NE7       30.19R
QUAD CITIES    CLOUDY    46  39  76 E6        30.17R
$$

IAZ062-063-075>077-085>089-095>099-290300-
   SOUTHEAST IOWA

CITY           SKY/WX    TMP DP  RH WIND       PRES   REMARKS
BURLINGTON     CLOUDY    50  45  83 E7        30.16R
FAIRFIELD *    CLOUDY    48  46  93 NE6       30.15R
FORT MADISON * CLOUDY    50  50 100 E6        30.16R
KEOKUK *       CLOUDY    50  46  87 NE6       30.14R
OSKALOOSA *    CLOUDY    47  46  95 E7        30.15S
CENTERVILLE *  CLOUDY    50  45  81 NE7       30.12F
OTTUMWA        CLOUDY    50  48  93 E8        30.14R
WASHINGTON *   CLOUDY    48  46  93 E8        30.18R
$$

ABBREVIATIONS USED IN REMARKS
   TC - TEMPERATURES IN CELSIUS
  WCI - WIND CHILL INDEX
   HX - HEAT INDEX
  VSB - VISIBILITY
$$





USA.gov is the U.S. government's official web portal to all federal, state and local government web resources and services.